Flag for U.S.A. Weather past 2 weeks in Fremont, California, U.S.A.

Now
65 °F

Overcast.


Feels Like: 65 °F
Forecast: 60 / 78 °F
Wind: 3 mph from North

Location: Moffett Field

Current Time: Aug 29, 2014 at 9:35:00 AM

Latest Report: Aug 29, 2014 at 8:56 AM


Visibility: 10 mi

Pressure: 29.97 "Hg

Humidity: 78%

Dew point: 58 °F

Location of FremontLocation

Historic Weather in Fremont — Graph

°F

Fremont temperature yesterday

Maximum temperature yesterday: 79 °F (at 3:56 PM)
Minimum temperature yesterday: 61 °F (at 2:56 AM)
Average temperature yesterday: 67 °F

Past Weeks' High & Low Weather Summary

 TemperatureHumidityPressure
High80 °F (Aug 27, 2:56 PM)90% (Aug 28, 2:56 AM)30.09 "Hg (Aug 28, 2:56 AM)
Low59 °F (Aug 26, 5:56 AM)45% (Aug 28, 3:56 PM)29.80 "Hg (Aug 19, 4:56 PM)
Average67 °F71%29.95 "Hg
* Reported Aug 14 7:56 AM — Aug 29 7:56 AM, Fremont, Weather by CustomWeather, © 2014

Note: Actual official high and low records may vary slightly from our data, if they occured in-between our weather recording intervals... More about our weather records

Advertising

Fremont weather history for previous 24 hours

 ConditionsComfort  
Time TempWeatherWind HumidityBarometerVisibility
7:56 AM
Aug 29
64 °FOvercast.No wind81%29.96 "Hg10 mi
6:56 AM63 °FOvercast.No wind84%29.95 "Hg10 mi
5:56 AM63 °FLow clouds.No wind84%29.95 "Hg10 mi
4:56 AM63 °FLow clouds.3 mph84%29.96 "Hg10 mi
3:56 AM63 °FLow clouds.No wind84%29.96 "Hg10 mi
2:56 AM63 °FLow clouds.5 mph84%29.97 "Hg10 mi
1:56 AM63 °FLow clouds.5 mph87%29.98 "Hg10 mi
12:56 AM62 °FClear.3 mph86%29.98 "Hg10 mi
11:56 PM
Aug 28
63 °FClear.5 mph84%29.99 "Hg10 mi
10:56 PM64 °FClear.8 mph84%29.98 "Hg10 mi
9:56 PM65 °FClear.9 mph81%29.99 "Hg10 mi
8:56 PM66 °FClear.No wind78%29.98 "Hg10 mi
7:56 PM67 °FSunny.3 mph76%29.96 "Hg10 mi
6:56 PM69 °FSunny.9 mph73%29.96 "Hg10 mi
5:56 PM72 °FSunny.13 mph66%29.96 "Hg10 mi
4:56 PM75 °FSunny.13 mph62%29.96 "Hg10 mi
3:56 PM79 °FSunny.10 mph45%29.97 "Hg10 mi
2:56 PM77 °FSunny.12 mph50%29.99 "Hg10 mi
1:56 PM73 °FSunny.8 mph62%30.02 "Hg10 mi
12:56 PM72 °FSunny.8 mph61%30.04 "Hg10 mi
11:56 AM70 °FSunny.5 mph66%30.06 "Hg10 mi
10:56 AM67 °FSunny.6 mph71%30.08 "Hg10 mi
9:56 AM64 °FOvercast.No wind78%30.09 "Hg10 mi
Weather by CustomWeather, © 2014

See weather overviewHow to use our weather pages